Search your local weather  

 
Advertise Here

Hazardous Weather Conditions

No active alerts for CHICAGO, ILLINOIS

Current Conditions: CHICAGO, ILLINOIS

Fair


78.0 F

Last Updated on Apr 21 2019, 4:52 pm CDT
Humidity: 24%
Wind Speed: S 16.1 G 23.0 mph
Barometer 29.97 in
Dewpoint: 37.9 F
Visibility: 10.00 mi
Precip: --
Heat Index: NA
Wind Chill: NA
Current conditions at:

Chicago / Wheeling, Pal-Waukee Airport, IL (KPWK)

Lat: 42.12 Lon: -87.904

Local Radar Image active severe weather and emergency alerts image image weather storm and storm spotter reports image weather observation monitoring service image
Local
Radar
Active
Alerts
Storm Reports Weather
Monitoring

Weather Alert Notification Services


ialert severe weather and emergency alerts by text message and email ialert daily weather forecast by email and text message service ialert real-time weather-observation monitoring and alert notification service ialert storm report monitoring alert notification

Observation History for CHICAGO, ILLINOIS


Time Wind
(mph)
Vis
(mi)
Weather Precip (in) Temperature (F) Relative
Humidity
Wind
Chill
(°F)
Heat
Index
(°F)
Pressure
Air Dwpt altimeter
(in)
sea level
(mb)
4:52 pm CDT S 16.1 G 23.0 10.00 Fair -- 78.0 37.9 24% NA NA 29.97 1014.8
3:52 pm CDT S 11.5 10.00 Fair -- 78.0 37.9 24% NA NA 29.97 1014.9
2:52 pm CDT S 12.7 10.00 Fair -- 77.0 39.0 26% NA NA 29.99 1015.4
1:52 pm CDT 5.8 10.00 Fair -- 76.0 37.0 25% NA NA 30.00 1016.0
12:52 pm CDT SW 8.1 10.00 Fair -- 75.0 37.0 25% NA NA 30.01 1016.3
11:52 am CDT SW 5.8 10.00 Fair -- 73.0 36.0 26% NA NA 30.02 1016.5
10:52 am CDT S 8.1 10.00 Fair -- 70.0 33.1 26% NA NA 30.01 1016.1
9:52 am CDT S 6.9 10.00 Fair -- 65.0 28.0 25% NA NA 30.01 1016.2
8:52 am CDT S 4.6 10.00 Fair -- 58.0 24.1 27% 58 NA 30.00 1015.9
7:52 am CDT S 3.5 10.00 Fair -- 50.0 26.1 39% NA NA 29.99 1015.8
6:52 am CDT N 0.0 10.00 Fair -- 46.0 28.0 50% NA NA 29.98 1015.4
5:52 am CDT SE 3.5 10.00 Fair -- 43.0 25.0 49% NA NA 29.96 1014.6
4:52 am CDT S 4.6 10.00 Fair -- 44.0 26.1 49% 41 NA 29.94 1013.9
3:52 am CDT SE 3.5 10.00 A Few Clouds -- 45.0 25.0 46% NA NA 29.93 1013.5
2:52 am CDT N 0.0 10.00 Overcast -- 47.0 25.0 42% NA NA 29.91 1012.9
1:52 am CDT N 0.0 10.00 Overcast -- 45.0 26.1 48% NA NA 29.90 1012.6
12:52 am CDT SE 3.5 10.00 Fair -- 41.0 25.0 53% NA NA 29.90 1012.5
11:52 pm CDT N 0.0 10.00 Fair -- 44.0 24.1 45% NA NA 29.88 1012.0
10:52 pm CDT N 0.0 10.00 Fair -- 46.0 19.0 34% NA NA 29.87 1011.7
9:52 pm CDT N 0.0 10.00 Fair -- 47.0 19.0 33% NA NA 29.87 1011.5
8:52 pm CDT N 3.5 10.00 Fair -- 51.0 10.9 20% NA NA 29.85 1010.9
7:52 pm CDT N 3.5 10.00 Fair -- 54.0 12.0 19% NA NA 29.83 1010.2
6:52 pm CDT NE 9.2 10.00 Fair -- 58.0 12.9 17% 56 NA 29.82 1010.0
5:52 pm CDT E 9.2 10.00 Fair -- 62.0 15.1 16% 61 NA 29.81 1009.6

Regional Weather Observation

Chicago, Chicago-OHare International Airport, IL (KORD)

Partly Cloudy
77.0 F

Chicago/Waukegan Regional Airport, IL (KUGN)

Fair
65.0 F

Chicago, Chicago Midway Airport, IL (KMDW)

Partly Cloudy
78.0 F

Kenosha, Kenosha Regional Airport, WI (KENW)

Fair
71.0 F

Chicago / West Chicago, Dupage Airport, IL (KDPA)

Fair
77.0 F

Racine, Batten International Airport, WI (KRAC)

Fair
63.0 F
Advertise Here

Advertise Here